Wichita Jabara, KS

8:16 PM CST on January 17, 2018 (GMT -0600)
Col Jabara

Weather History for KAAO - May, 2014

Change the Weather History Date:

Monday, May 5, 2014

  Actual Average (KIAB) Record (KIAB)
Temperature  
Mean Temperature 78 °F -  
Max Temperature 91 °F 72 °F 92 °F (2014)
Min Temperature 64 °F 51 °F 42 °F (2013)
Cooling Degree Days 14    
Growing Degree Days 28 (Base 50)    
Moisture  
Dew Point 42 °F    
Average Humidity 32    
Maximum Humidity 67    
Minimum Humidity 18    
Precipitation  
Precipitation 0.00 in - - ()
Sea Level Pressure  
Sea Level Pressure 29.63 in    
Wind  
Wind Speed 13 mph (SW)    
Max Wind Speed 20 mph    
Max Gust Speed 28 mph    
Visibility 10 miles    
Events      
Averages and records for this station are not official NWS values.
T = Trace of Precipitation, MM = Missing Value Source: NWS Daily Summary

Daily Weather History Graph

Daily Weather History Graph

Search for Another Location

Airport or City:

Trip Planner

Search our weather history database for the weather conditions in past years. The results will help you decide how hot, cold, wet, or windy it might be!

Date:

Astronomy

May. 05, 2014 Rise Set
Actual Time 6:28 AM CDT 8:22 PM CDT
Civil Twilight 6:00 AM CDT 8:51 PM CDT
Nautical Twilight 5:25 AM CDT 9:26 PM CDT
Astronomical Twilight 4:48 AM CDT 10:03 PM CDT
Moon 11:49 AM CDT (5/5) 1:08 AM CDT (5/5)
Length of Visible Light 14h 51m
Length of Day
13h 54m
Waxing Crescent, 37% of the Moon is Illuminated
May 5
Waxing Crescent
May 6
First Quarter
May 14
Full
May 21
Last Quarter
May 28
New

Hourly Weather History & Observations

Time (CDT) Temp. Dew Point Humidity Pressure Visibility Wind Dir Wind Speed Gust Speed Precip Events Conditions
12:54 AM 77.0 °F 36.0 °F 23% 29.65 in 10.0 mi SSW 19.6 mph 27.6 mph N/A   Clear
1:54 AM 75.0 °F 36.0 °F 24% 29.65 in 10.0 mi South 19.6 mph - N/A   Clear
2:54 AM 72.0 °F 36.0 °F 27% 29.63 in 10.0 mi South 15.0 mph - N/A   Clear
3:54 AM 70.0 °F 36.0 °F 29% 29.62 in 10.0 mi South 13.8 mph - N/A   Clear
4:54 AM 68.0 °F 37.0 °F 32% 29.61 in 10.0 mi South 15.0 mph - N/A   Clear
5:54 AM 66.0 °F 37.0 °F 34% 29.60 in 10.0 mi South 15.0 mph - N/A   Clear
6:54 AM 66.9 °F 37.0 °F 33% 29.61 in 10.0 mi South 13.8 mph 21.9 mph N/A   Clear
7:54 AM 68.0 °F 37.9 °F 33% 29.65 in 10.0 mi SSW 9.2 mph 19.6 mph N/A   Clear
8:54 AM 71.1 °F 39.0 °F 31% 29.65 in 10.0 mi SSW 10.4 mph - N/A   Clear
9:54 AM 75.9 °F 37.9 °F 25% 29.64 in 10.0 mi SSW 13.8 mph - N/A   Clear
10:54 AM 78.1 °F 36.0 °F 22% 29.66 in 10.0 mi SW 8.1 mph - N/A   Clear
11:54 AM 82.0 °F 39.0 °F 22% 29.65 in 10.0 mi South 8.1 mph - N/A   Clear
1:54 PM 86.0 °F 39.9 °F 20% 29.63 in 10.0 mi Variable 4.6 mph - N/A   Clear
2:54 PM 89.1 °F 39.9 °F 18% 29.63 in 10.0 mi SW 10.4 mph - N/A   Clear
3:54 PM 90.0 °F 41.0 °F 18% 29.60 in 10.0 mi Variable 5.8 mph - N/A   Clear
4:54 PM 91.0 °F 43.0 °F 19% 29.59 in 10.0 mi West 5.8 mph - N/A   Clear
5:54 PM 88.0 °F 48.9 °F 26% 29.60 in 10.0 mi WNW 11.5 mph - N/A   Clear
6:54 PM 86.0 °F 50.0 °F 29% 29.60 in 10.0 mi WNW 9.2 mph - N/A   Clear
7:54 PM 80.1 °F 50.0 °F 35% 29.61 in 10.0 mi NW 8.1 mph - N/A   Clear
8:54 PM 73.0 °F 52.0 °F 48% 29.63 in 10.0 mi North 8.1 mph - N/A   Clear
9:54 PM 69.1 °F 52.0 °F 54% 29.64 in 10.0 mi NNW 9.2 mph - N/A   Clear
10:54 PM 66.0 °F 53.1 °F 63% 29.64 in 10.0 mi North 6.9 mph - N/A   Clear
11:54 PM 64.0 °F 53.1 °F 67% 29.65 in 10.0 mi NNE 3.5 mph - N/A   Clear